| time (UTC) | temp C | wind direction | speed KPH | gust KPH | rain 1hr cm | rain 24hr cm | rain mn cm | humidity % | barometer mb |
| 20260505074843 | 18 | 215 | 1.6 | 4.8 | 0.00 | 0.00 | 0.00 | 47 | 1010.1 |
| 20260505073855 | 18 | 200 | 3.2 | 9.7 | 0.00 | 0.00 | 0.00 | 47 | 1010.0 |
| 20260505072854 | 18 | 173 | 3.2 | 9.7 | 0.00 | 0.00 | 0.00 | 47 | 1010.0 |
| 20260505071911 | 18 | 205 | 0.0 | 4.8 | 0.00 | 0.00 | 0.00 | 48 | 1010.0 |
| 20260505070907 | 18 | 191 | 1.6 | 6.4 | 0.00 | 0.00 | 0.00 | 47 | 1010.1 |
| 20260505065928 | 19 | 196 | 1.6 | 9.7 | 0.00 | 0.00 | 0.00 | 47 | 1010.0 |
| 20260505064936 | 19 | 212 | 3.2 | 9.7 | 0.00 | 0.00 | 0.00 | 46 | 1010.1 |
| 20260505062758 | 19 | 209 | 0.0 | 6.4 | 0.00 | 0.00 | 0.00 | 45 | 1009.9 |
| 20260505061820 | 19 | 237 | 0.0 | 0.0 | 0.00 | 0.00 | 0.00 | 45 | 1009.8 |
| 20260505060821 | 19 | 221 | 1.6 | 8.0 | 0.00 | 0.00 | 0.00 | 44 | 1009.7 |
| 20260505055846 | 19 | 155 | 1.6 | 8.0 | 0.00 | 0.00 | 0.00 | 44 | 1009.8 |
| 20260505054819 | 19 | 227 | 0.0 | 6.4 | 0.00 | 0.00 | 0.00 | 44 | 1009.9 |
| 20260505053826 | 19 | 196 | 0.0 | 1.6 | 0.00 | 0.00 | 0.00 | 44 | 1009.9 |
| 20260505052822 | 19 | 212 | 0.0 | 0.0 | 0.00 | 0.00 | 0.00 | 43 | 1010.2 |
| 20260505051840 | 19 | 190 | 0.0 | 0.0 | 0.00 | 0.00 | 0.00 | 42 | 1010.2 |
| 20260505050846 | 19 | 212 | 0.0 | 0.0 | 0.00 | 0.00 | 0.00 | 42 | 1010.3 |
| 20260505041612 | 19 | 211 | 1.6 | 4.8 | 0.00 | 0.00 | 0.00 | 41 | 1010.3 |
| 20260505040629 | 19 | 237 | 0.0 | 4.8 | 0.00 | 0.00 | 0.00 | 41 | 1010.2 |
| 20260505035622 | 20 | 231 | 0.0 | 1.6 | 0.00 | 0.00 | 0.00 | 41 | 1009.9 |
| 20260505034600 | 20 | 235 | 1.6 | 6.4 | 0.00 | 0.00 | 0.00 | 40 | 1009.7 |
| 20260505033625 | 20 | 236 | 1.6 | 8.0 | 0.00 | 0.00 | 0.00 | 39 | 1009.6 |
| 20260505032613 | 20 | 219 | 1.6 | 8.0 | 0.00 | 0.00 | 0.00 | 40 | 1009.6 |
| 20260505030436 | 20 | 224 | 3.2 | 8.0 | 0.00 | 0.00 | 0.00 | 39 | 1009.3 |
| 20260505025501 | 20 | 226 | 1.6 | 8.0 | 0.00 | 0.00 | 0.00 | 38 | 1009.3 |
| 20260505023354 | 20 | 218 | 3.2 | 9.7 | 0.00 | 0.00 | 0.00 | 36 | 1009.2 |
| 20260505022334 | 20 | 224 | 1.6 | 9.7 | 0.00 | 0.00 | 0.00 | 35 | 1009.1 |
| 20260505021312 | 20 | 210 | 4.8 | 11.3 | 0.00 | 0.00 | 0.00 | 33 | 1009.0 |
| 20260505020240 | 21 | 233 | 6.4 | 14.5 | 0.00 | 0.00 | 0.00 | 31 | 1009.0 |
| 20260505014116 | 21 | 238 | 4.8 | 12.9 | 0.00 | 0.00 | 0.00 | 31 | 1008.7 |
| 20260505013054 | 21 | 214 | 4.8 | 12.9 | 0.00 | 0.00 | 0.00 | 32 | 1008.8 |
| 20260505012052 | 21 | 221 | 3.2 | 9.7 | 0.00 | 0.00 | 0.00 | 30 | 1008.6 |
| 20260505011036 | 21 | 227 | 4.8 | 11.3 | 0.00 | 0.00 | 0.00 | 33 | 1008.6 |
| 20260505010058 | 21 | 231 | 4.8 | 14.5 | 0.00 | 0.00 | 0.00 | 32 | 1008.9 |
| 20260505005116 | 22 | 174 | 6.4 | 14.5 | 0.00 | 0.00 | 0.00 | 33 | 1008.8 |
| 20260505003029 | 22 | 202 | 6.4 | 14.5 | 0.00 | 0.00 | 0.00 | 33 | 1009.0 |
| 20260505002019 | 22 | 209 | 6.4 | 17.7 | 0.00 | 0.00 | 0.00 | 34 | 1009.1 |
| 20260505001029 | 22 | 250 | 6.4 | 19.3 | 0.00 | 0.00 | 0.00 | 32 | 1009.2 |
| 20260505000037 | 22 | 210 | 4.8 | 19.3 | 0.00 | 0.00 | 0.00 | 31 | 1009.2 |
| 20260504235007 | 22 | 214 | 4.8 | 17.7 | 0.00 | 0.00 | 0.00 | 32 | 1009.0 |
| 20260504234023 | 22 | 241 | 9.7 | 19.3 | 0.00 | 0.00 | 0.00 | 30 | 1008.9 |
| 20260504232952 | 23 | 213 | 8.0 | 19.3 | 0.00 | 0.00 | 0.00 | 32 | 1008.8 |
| 20260504230757 | 22 | 208 | 6.4 | 19.3 | 0.00 | 0.00 | 0.00 | 32 | 1008.8 |
| 20260504223548 | 22 | 272 | 6.4 | 19.3 | 0.00 | 0.00 | 0.00 | 32 | 1009.0 |
| 20260504221458 | 23 | 188 | 11.3 | 22.5 | 0.00 | 0.00 | 0.00 | 30 | 1009.3 |
| 20260504220458 | 23 | 224 | 8.0 | 22.5 | 0.00 | 0.00 | 0.00 | 33 | 1009.4 |
| 20260504215455 | 23 | 215 | 9.7 | 19.3 | 0.00 | 0.00 | 0.00 | 33 | 1009.6 |
| 20260504214446 | 23 | 233 | 8.0 | 19.3 | 0.00 | 0.00 | 0.00 | 33 | 1009.6 |
| 20260504213443 | 22 | 217 | 9.7 | 19.3 | 0.00 | 0.00 | 0.00 | 35 | 1009.9 |
| 20260504212449 | 23 | 230 | 9.7 | 20.9 | 0.00 | 0.00 | 0.00 | 33 | 1009.7 |
| 20260504211506 | 22 | 198 | 8.0 | 20.9 | 0.00 | 0.00 | 0.00 | 36 | 1010.0 |
| 20260504210431 | 22 | 221 | 8.0 | 19.3 | 0.00 | 0.00 | 0.00 | 36 | 1010.1 |
| 20260504205420 | 22 | 220 | 8.0 | 17.7 | 0.00 | 0.00 | 0.00 | 38 | 1010.0 |
| 20260504204433 | 22 | 236 | 8.0 | 19.3 | 0.00 | 0.00 | 0.00 | 37 | 1010.0 |
| 20260504203408 | 22 | 182 | 6.4 | 19.3 | 0.00 | 0.00 | 0.00 | 38 | 1010.3 |
| 20260504202402 | 22 | 233 | 9.7 | 17.7 | 0.00 | 0.00 | 0.00 | 40 | 1010.2 |
| 20260504201422 | 22 | 256 | 8.0 | 17.7 | 0.00 | 0.00 | 0.00 | 41 | 1010.2 |
| 20260504200419 | 22 | 263 | 6.4 | 17.7 | 0.00 | 0.00 | 0.00 | 40 | 1010.3 |
| 20260504194339 | 22 | 220 | 9.7 | 20.9 | 0.00 | 0.00 | 0.00 | 40 | 1010.1 |
| 20260504191058 | 22 | 200 | 4.8 | 17.7 | 0.00 | 0.00 | 0.00 | 42 | 1010.0 |
| 20260504184925 | 21 | 192 | 4.8 | 14.5 | 0.00 | 0.00 | 0.00 | 44 | 1010.1 |
| 20260504183910 | 21 | 59 | 6.4 | 16.1 | 0.00 | 0.00 | 0.00 | 44 | 1010.2 |
| 20260504182929 | 21 | 235 | 6.4 | 16.1 | 0.00 | 0.00 | 0.00 | 44 | 1010.3 |
| 20260504181950 | 21 | 136 | 8.0 | 16.1 | 0.00 | 0.00 | 0.00 | 45 | 1010.3 |
| 20260504180935 | 21 | 240 | 8.0 | 16.1 | 0.00 | 0.00 | 0.00 | 45 | 1010.5 |
| 20260504175923 | 21 | 217 | 8.0 | 17.7 | 0.00 | 0.00 | 0.00 | 45 | 1010.3 |
| 20260504174854 | 21 | 263 | 8.0 | 17.7 | 0.00 | 0.00 | 0.00 | 45 | 1010.1 |
| 20260504173840 | 21 | 221 | 3.2 | 14.5 | 0.00 | 0.00 | 0.00 | 44 | 1009.5 |
| 20260504172815 | 20 | 200 | 3.2 | 16.1 | 0.00 | 0.00 | 0.00 | 45 | 1009.4 |
| 20260504171833 | 20 | 207 | 4.8 | 16.1 | 0.00 | 0.00 | 0.00 | 45 | 1009.7 |
| 20260504170805 | 20 | 234 | 6.4 | 16.1 | 0.00 | 0.00 | 0.00 | 45 | 1010.2 |
| 20260504150615 | 21 | 188 | 3.2 | 8.0 | 0.00 | 0.00 | 0.00 | 38 | 1009.7 |
| 20260504140457 | 19 | 120 | 0.0 | 0.0 | 0.00 | 0.00 | 0.00 | 43 | 1009.0 |
| 20260504130139 | 17 | 120 | 0.0 | 0.0 | 0.00 | 0.00 | 0.00 | 45 | 1008.6 |
| 20260504081720 | 21 | 98 | 0.0 | 0.0 | 0.00 | 0.00 | 0.00 | 38 | 1007.6 |
| 20260504080710 | 21 | 174 | 0.0 | 0.0 | 0.00 | 0.00 | 0.00 | 37 | 1007.7 |